Time,TemperatureF,DewpointF,PressureIn,WindDirection,WindDirectionDegrees,WindSpeedMPH,WindSpeedGustMPH,Humidity,HourlyPrecipIn,Conditions,Clouds,dailyrainin,SoftwareType,DateUTC
2013-01-19 08:01:00,31.0,23.0,30.28,South,177,1.0,-999.0,73,-99.99,,,0.00,weatherlink.com 1.10,2013-01-19 13:01:00,
2013-01-19 08:16:00,31.2,23.0,30.28,SW,217,5.0,-999.0,73,-99.99,,,0.00,weatherlink.com 1.10,2013-01-19 13:16:00,
2013-01-19 08:31:00,31.4,24.0,30.28,South,169,5.0,-999.0,73,-99.99,,,0.00,weatherlink.com 1.10,2013-01-19 13:31:00,
2013-01-19 08:46:00,31.9,24.0,30.28,SSE,165,0.0,-999.0,73,-99.99,,,0.00,weatherlink.com 1.10,2013-01-19 13:46:00,
2013-01-19 09:01:00,32.8,25.0,30.27,SSW,197,3.0,-999.0,72,-99.99,,,0.00,weatherlink.com 1.10,2013-01-19 14:01:00,
2013-01-19 09:16:00,33.2,25.0,30.28,SSW,192,4.0,-999.0,72,-99.99,,,0.00,weatherlink.com 1.10,2013-01-19 14:16:00,
2013-01-19 09:31:00,33.5,25.0,30.27,South,190,2.0,-999.0,72,-99.99,,,0.00,weatherlink.com 1.10,2013-01-19 14:31:00,
2013-01-19 09:47:00,34.0,26.0,30.27,SSW,201,2.0,-999.0,72,-99.99,,,0.00,weatherlink.com 1.10,2013-01-19 14:47:00,
2013-01-19 10:02:00,34.5,26.0,30.26,South,190,1.0,-999.0,71,-99.99,,,0.00,weatherlink.com 1.10,2013-01-19 15:02:00,
2013-01-19 10:17:00,35.0,26.0,30.25,South,183,4.0,-999.0,70,-99.99,,,0.00,weatherlink.com 1.10,2013-01-19 15:17:00,
2013-01-19 10:32:00,35.3,26.0,30.24,SSW,196,4.0,-999.0,70,-99.99,,,0.00,weatherlink.com 1.10,2013-01-19 15:32:00,
2013-01-19 10:47:00,35.7,27.0,30.24,SSW,206,4.0,-999.0,70,-99.99,,,0.00,weatherlink.com 1.10,2013-01-19 15:47:00,
2013-01-19 11:02:00,36.1,27.0,30.23,South,190,1.0,-999.0,69,-99.99,,,0.00,weatherlink.com 1.10,2013-01-19 16:02:00,
2013-01-19 11:17:00,36.6,27.0,30.21,SSW,192,0.0,-999.0,69,-99.99,,,0.00,weatherlink.com 1.10,2013-01-19 16:17:00,
2013-01-19 11:32:00,37.3,28.0,30.19,SSW,192,0.0,-999.0,68,-99.99,,,0.01,weatherlink.com 1.10,2013-01-19 16:32:00,
2013-01-19 11:47:00,37.9,28.0,30.18,South,173,2.0,-999.0,67,-99.99,,,0.00,weatherlink.com 1.10,2013-01-19 16:47:00,
2013-01-19 12:03:00,38.8,28.0,30.17,South,191,2.0,-999.0,66,-99.99,,,0.00,weatherlink.com 1.10,2013-01-19 17:03:00,
2013-01-19 12:18:00,39.8,28.0,30.16,South,189,4.0,-999.0,64,-99.99,,,0.00,weatherlink.com 1.10,2013-01-19 17:18:00,
2013-01-19 12:33:00,40.3,29.0,30.14,South,178,1.0,-999.0,64,-99.99,,,0.01,weatherlink.com 1.10,2013-01-19 17:33:00,
2013-01-19 12:48:00,41.0,29.0,30.14,SSE,162,0.0,-999.0,62,-99.99,,,0.01,weatherlink.com 1.10,2013-01-19 17:48:00,
2013-01-19 13:03:00,41.4,29.0,30.13,SSW,197,0.0,-999.0,62,-99.99,,,0.02,weatherlink.com 1.10,2013-01-19 18:03:00,
2013-01-19 13:18:00,41.9,29.0,30.12,SSW,205,1.0,-999.0,61,-99.99,,,0.03,weatherlink.com 1.10,2013-01-19 18:18:00,
2013-01-19 13:33:00,42.5,29.0,30.11,South,184,2.0,-999.0,60,-99.99,,,0.03,weatherlink.com 1.10,2013-01-19 18:33:00,
2013-01-19 13:48:00,43.2,29.0,30.10,SSW,211,2.0,-999.0,58,-99.99,,,0.04,weatherlink.com 1.10,2013-01-19 18:48:00,
2013-01-19 14:04:00,43.5,29.0,30.10,WSW,239,0.0,-999.0,57,-99.99,,,0.04,weatherlink.com 1.10,2013-01-19 19:04:00,
2013-01-19 14:19:00,43.8,29.0,30.10,SSW,202,0.0,-999.0,57,-99.99,,,0.05,weatherlink.com 1.10,2013-01-19 19:19:00,
2013-01-19 15:34:00,44.5,29.0,30.09,SSW,196,0.0,-999.0,55,-99.99,,,0.07,weatherlink.com 1.10,2013-01-19 20:34:00,
2013-01-19 15:49:00,44.5,29.0,30.08,South,183,0.0,-999.0,54,-99.99,,,0.07,weatherlink.com 1.10,2013-01-19 20:49:00,
2013-01-19 16:04:00,44.4,29.0,30.07,South,183,0.0,-999.0,55,-99.99,,,0.07,weatherlink.com 1.10,2013-01-19 21:04:00,
2013-01-19 16:35:00,43.6,29.0,30.06,South,188,0.0,-999.0,56,-99.99,,,0.07,weatherlink.com 1.10,2013-01-19 21:35:00,
2013-01-19 16:50:00,43.2,28.0,30.06,South,188,0.0,-999.0,56,-99.99,,,0.08,weatherlink.com 1.10,2013-01-19 21:50:00,
2013-01-19 17:20:00,42.1,28.0,30.05,South,188,0.0,-999.0,58,-99.99,,,0.08,weatherlink.com 1.10,2013-01-19 22:20:00,
2013-01-19 17:35:00,41.1,28.0,30.05,South,188,0.0,-999.0,61,-99.99,,,0.08,weatherlink.com 1.10,2013-01-19 22:35:00,
2013-01-19 17:50:00,40.0,28.0,30.05,South,188,0.0,-999.0,63,-99.99,,,0.08,weatherlink.com 1.10,2013-01-19 22:50:00,
2013-01-19 18:05:00,39.1,28.0,30.04,South,188,0.0,-999.0,65,-99.99,,,0.08,weatherlink.com 1.10,2013-01-19 23:05:00,
2013-01-19 18:20:00,38.4,28.0,30.04,South,188,0.0,-999.0,67,-99.99,,,0.08,weatherlink.com 1.10,2013-01-19 23:20:00,
2013-01-19 18:35:00,37.8,28.0,30.04,South,188,0.0,-999.0,69,-99.99,,,0.08,weatherlink.com 1.10,2013-01-19 23:35:00,
2013-01-19 18:50:00,37.5,29.0,30.03,South,188,0.0,-999.0,70,-99.99,,,0.08,weatherlink.com 1.10,2013-01-19 23:50:00,
2013-01-19 19:20:00,37.5,30.0,30.03,SSW,198,2.0,-999.0,73,-99.99,,,0.08,weatherlink.com 1.10,2013-01-20 00:20:00,
2013-01-19 19:36:00,40.8,30.0,30.02,SSW,201,0.0,-999.0,66,-99.99,,,0.08,weatherlink.com 1.10,2013-01-20 00:36:00,
2013-01-19 20:21:00,43.6,30.0,30.00,SSW,196,3.0,-999.0,60,-99.99,,,0.08,weatherlink.com 1.10,2013-01-20 01:21:00,
2013-01-19 21:21:00,44.1,30.0,29.99,SSW,205,1.0,-999.0,59,-99.99,,,0.09,weatherlink.com 1.10,2013-01-20 02:21:00,
2013-01-19 22:07:00,43.5,30.0,29.97,SSW,202,3.0,-999.0,60,-99.99,,,0.09,weatherlink.com 1.10,2013-01-20 03:07:00,
2013-01-19 22:22:00,43.4,31.0,29.96,SSE,155,5.0,-999.0,61,-99.99,,,0.09,weatherlink.com 1.10,2013-01-20 03:22:00,